2024-247AD

Last updated on Tue Jan 21 2025 00:02:04 GMT+0000 (Coordinated Universal Time)

1 62404U 24247AD 25020.56433326 .00027772 00000+0 12525-2 0 9997 2 62404 44.9958 198.5866 0003582 179.9439 180.1442 15.20593471 4720
UTC large
Height (km)
Speed (km/s)
/
Latitude / Longitude
Inclination (degrees)
Orbital Period (minutes)
Azimuth
Elevation
Range (km)
Doppler Factor

Next 0 passes for location: London (51.5072 / 0.1276)

Sorry there are no passes over London.